FW4608 Weather Reports


Display with metric or nautical units.
time (UTC)temp
F
wind
direction
speed
MPH
gust
MPH
rain 1hr
in
rain 24hr
in
rain mn
in
humidity
%
barometer
mb
20260508022057 81 229 1.0 4.0 0.00 0.00 0.00 75 1012.7
20260508021550 81 217 1.0 3.0 0.00 0.00 0.00 74 1012.6
20260508021049 81 321 0.0 6.0 0.00 0.00 0.00 73 1012.6
20260508020551 81 305 1.0 6.0 0.00 0.00 0.00 73 1012.6
20260508020048 81 250 0.0 4.0 0.00 0.00 0.00 72 1012.5
20260508015548 82 259 0.0 4.0 0.00 0.00 0.00 72 1012.5
20260508015051 82 243 0.0 3.0 0.00 0.00 0.00 72 1012.4
20260508014547 82 256 0.0 2.0 0.00 0.00 0.00 71 1012.3
20260508014050 82 248 0.0 3.0 0.00 0.00 0.00 70 1012.3
20260508013546 83 230 0.0 6.0 0.00 0.00 0.00 69 1012.2
20260508013047 83 243 2.0 6.0 0.00 0.00 0.00 70 1012.3
20260508012550 83 227 0.0 6.0 0.00 0.00 0.00 69 1012.4
20260508012031 83 272 1.0 5.0 0.00 0.00 0.00 69 1012.2
20260508011530 83 192 0.0 5.0 0.00 0.00 0.00 69 1012.0
20260508011026 83 239 2.0 5.0 0.00 0.00 0.00 68 1012.0
20260508010528 83 250 1.0 4.0 0.00 0.00 0.00 67 1011.7
20260508010029 83 244 1.0 4.0 0.00 0.00 0.00 67 1011.8
20260508005527 84 264 0.0 5.0 0.00 0.00 0.00 67 1011.9
20260508005001 84 304 1.0 6.0 0.00 0.00 0.00 66 1011.7
20260508004603 84 232 1.0 6.0 0.00 0.00 0.00 65 1011.7
20260508004107 84 256 1.0 7.0 0.00 0.00 0.00 65 1011.5
20260508003557 84 243 1.0 5.0 0.00 0.00 0.00 65 1011.6
20260508002603 85 221 1.0 6.0 0.00 0.00 0.00 64 1011.7
20260508002057 85 243 1.0 5.0 0.00 0.00 0.00 62 1011.7
20260508001555 85 133 0.0 5.0 0.00 0.00 0.00 61 1011.5
20260508001054 85 251 0.0 8.0 0.00 0.00 0.00 61 1011.8
20260508000556 85 256 0.0 8.0 0.00 0.00 0.00 61 1011.7
20260508000052 86 312 2.0 8.0 0.00 0.00 0.00 60 1011.7
20260507235655 86 237 3.0 8.0 0.00 0.00 0.00 59 1011.7
20260507235051 86 225 0.0 5.0 0.00 0.00 0.00 61 1011.7
20260507234554 86 221 0.0 6.0 0.00 0.00 0.00 60 1011.7
20260507234052 86 250 1.0 6.0 0.00 0.00 0.00 60 1011.5
20260507233552 87 262 2.0 5.0 0.00 0.00 0.00 59 1011.4
20260507233047 87 245 1.0 4.0 0.00 0.00 0.00 58 1011.4
20260507232547 87 253 1.0 5.0 0.00 0.00 0.00 57 1011.3
20260507232046 87 231 2.0 5.0 0.00 0.00 0.00 57 1011.2
20260507231550 87 248 1.0 5.0 0.00 0.00 0.00 56 1011.2
20260507231050 87 234 0.0 5.0 0.00 0.00 0.00 55 1011.3
20260507230543 88 251 1.0 6.0 0.00 0.00 0.00 54 1011.2
20260507230042 88 243 2.0 6.0 0.00 0.00 0.00 54 1011.1
20260507225544 88 248 1.0 6.0 0.00 0.00 0.00 55 1011.1
20260507225041 88 224 2.0 6.0 0.00 0.00 0.00 56 1011.0
20260507224541 88 240 2.0 5.0 0.00 0.00 0.00 58 1011.1
20260507224154 89 233 2.0 5.0 0.00 0.00 0.00 57 1010.9
20260507223539 89 225 0.0 5.0 0.00 0.00 0.00 58 1010.6
20260507223036 89 264 2.0 6.0 0.00 0.00 0.00 57 1010.5
20260507222536 88 241 2.0 8.0 0.00 0.00 0.00 57 1010.6
20260507222039 88 259 3.0 8.0 0.00 0.00 0.00 58 1010.7
20260507221534 88 67 2.0 6.0 0.00 0.00 0.00 58 1010.6
20260507221037 88 255 2.0 8.0 0.00 0.00 0.00 59 1010.7
20260507220534 88 235 2.0 8.0 0.00 0.00 0.00 59 1010.8
20260507220032 88 253 3.0 7.0 0.00 0.00 0.00 58 1010.8
20260507215534 88 169 2.0 8.0 0.00 0.00 0.00 59 1010.8
20260507215030 89 222 2.0 8.0 0.00 0.00 0.00 58 1010.8
20260507214536 89 252 2.0 6.0 0.00 0.00 0.00 57 1011.0
20260507214027 89 304 3.0 8.0 0.00 0.00 0.00 58 1010.9
20260507213529 89 276 3.0 8.0 0.00 0.00 0.00 57 1010.8
20260507213031 89 233 2.0 7.0 0.00 0.00 0.00 58 1010.7
20260507212530 89 279 1.0 7.0 0.00 0.00 0.00 59 1011.0
20260507212125 88 245 1.0 7.0 0.00 0.00 0.00 61 1011.1
20260507211525 88 202 2.0 6.0 0.00 0.00 0.00 60 1011.0
20260507211026 87 230 1.0 6.0 0.00 0.00 0.00 64 1011.4
20260507210524 87 302 2.0 6.0 0.00 0.00 0.00 63 1011.6
20260507210023 87 212 2.0 8.0 0.00 0.00 0.00 62 1011.7
20260507205519 87 232 3.0 8.0 0.00 0.00 0.00 63 1011.7
20260507205018 87 215 1.0 5.0 0.00 0.00 0.00 65 1012.0
20260507204516 86 254 2.0 9.0 0.00 0.00 0.00 68 1012.1
20260507204014 86 253 2.0 9.0 0.00 0.00 0.00 69 1012.3
20260507203521 85 166 1.0 9.0 0.00 0.00 0.00 68 1012.4
20260507203014 86 281 3.0 9.0 0.00 0.00 0.00 68 1012.6
20260507202510 86 248 1.0 4.0 0.00 0.00 0.00 69 1012.6
20260507202111 85 256 1.0 4.0 0.00 0.00 0.00 70 1012.6
20260507201510 84 259 0.0 6.0 0.00 0.00 0.00 70 1012.6
20260507201019 84 226 1.0 8.0 0.00 0.00 0.00 70 1012.6
20260507200512 84 224 2.0 8.0 0.00 0.00 0.00 70 1012.6
20260507200010 84 267 3.0 7.0 0.00 0.00 0.00 68 1012.5
20260507195507 85 235 2.0 7.0 0.00 0.00 0.00 69 1012.6
20260507195011 85 229 2.0 8.0 0.00 0.00 0.00 67 1012.9
20260507194504 85 275 2.0 9.0 0.00 0.00 0.00 68 1013.0
20260507194004 86 293 5.0 9.0 0.00 0.00 0.00 68 1013.1
20260507193513 86 241 1.0 9.0 0.00 0.00 0.00 67 1013.4
20260507193003 86 311 1.0 8.0 0.00 0.00 0.00 66 1013.6
20260507192607 86 245 2.0 8.0 0.00 0.00 0.00 65 1013.5
20260507192100 87 252 1.0 4.0 0.00 0.00 0.00 65 1013.6
20260507192002 87 313 1.0 4.0 0.00 0.00 0.00 64 1013.6
20260507191600 88 324 1.0 4.0 0.00 0.00 0.00 63 1013.8
20260507191058 88 278 1.0 6.0 0.00 0.00 0.00 60 1013.5
20260507190700 88 282 1.0 6.0 0.00 0.00 0.00 60 1013.4
20260507185559 88 316 1.0 6.0 0.00 0.00 0.00 60 1013.5
20260507185054 88 302 1.0 4.0 0.00 0.00 0.00 60 1013.6
20260507184554 89 233 1.0 5.0 0.00 0.00 0.00 59 1013.7
20260507184054 88 269 1.0 5.0 0.00 0.00 0.00 61 1013.8
20260507183551 88 327 1.0 6.0 0.00 0.00 0.00 59 1013.8
20260507183052 88 261 2.0 6.0 0.00 0.00 0.00 59 1013.8
20260507182552 88 269 1.0 5.0 0.00 0.00 0.00 58 1013.8
20260507182048 89 241 1.0 3.0 0.00 0.00 0.00 57 1013.9
20260507181552 89 251 0.0 3.0 0.00 0.00 0.00 57 1013.7
20260507181050 89 209 0.0 7.0 0.00 0.00 0.00 56 1013.8
20260507180549 89 319 1.0 7.0 0.00 0.00 0.00 54 1014.1
20260507180049 90 248 1.0 4.0 0.00 0.00 0.00 55 1014.2
20260507175545 90 320 0.0 3.0 0.00 0.00 0.00 53 1014.1
20260507175047 91 332 0.0 5.0 0.00 0.00 0.00 52 1014.1
20260507174550 92 230 0.0 5.0 0.00 0.00 0.00 53 1014.4
20260507174044 92 207 1.0 12.0 0.00 0.00 0.00 54 1014.4
20260507173546 92 283 5.0 12.0 0.00 0.00 0.00 53 1014.5
20260507173147 94 245 2.0 5.0 0.00 0.00 0.00 49 1014.5
20260507172544 94 310 0.0 5.0 0.00 0.00 0.00 53 1014.6
20260507172042 94 212 2.0 6.0 0.00 0.00 0.00 51 1014.4
20260507171550 94 288 1.0 6.0 0.00 0.00 0.00 52 1014.5
20260507171036 94 340 1.0 5.0 0.00 0.00 0.00 57 1014.6
20260507170538 93 137 0.0 5.0 0.00 0.00 0.00 57 1014.5
20260507170034 93 259 1.0 4.0 0.00 0.00 0.00 56 1014.6
20260507165533 92 143 1.0 5.0 0.00 0.00 0.00 60 1014.5
20260507165134 92 245 1.0 5.0 0.00 0.00 0.00 59 1014.5
20260507164530 91 281 1.0 5.0 0.00 0.00 0.00 59 1014.6
20260507164029 92 219 1.0 6.0 0.00 0.00 0.00 61 1014.4
20260507163528 92 236 2.0 7.0 0.00 0.00 0.00 61 1014.5
20260507163029 92 118 2.0 7.0 0.00 0.00 0.00 60 1014.5
20260507162528 92 335 1.0 4.0 0.00 0.00 0.00 61 1014.5
20260507162025 91 250 1.0 5.0 0.00 0.00 0.00 62 1014.6
20260507161524 91 120 2.0 5.0 0.00 0.00 0.00 61 1014.6
20260507161023 91 319 1.0 4.0 0.00 0.00 0.00 61 1014.8
20260507160518 91 219 0.0 5.0 0.00 0.00 0.00 61 1014.7
20260507160013 91 231 0.0 5.0 0.00 0.00 0.00 61 1014.8
20260507155511 90 238 1.0 5.0 0.00 0.00 0.00 64 1015.0
20260507155111 90 56 0.0 5.0 0.00 0.00 0.00 64 1015.0
20260507154515 89 274 1.0 9.0 0.00 0.00 0.00 64 1015.2
20260507154007 89 255 4.0 9.0 0.00 0.00 0.00 65 1015.1
20260507153505 88 245 2.0 5.0 0.00 0.00 0.00 65 1015.0
20260507153005 87 304 1.0 5.0 0.00 0.00 0.00 66 1014.9
20260507152508 87 275 1.0 4.0 0.00 0.00 0.00 66 1014.9
20260507152005 87 219 1.0 4.0 0.00 0.00 0.00 65 1014.8
20260507151501 87 238 0.0 4.0 0.00 0.00 0.00 70 1014.7
20260507151101 87 72 0.0 6.0 0.00 0.00 0.00 71 1014.7
20260507150559 86 257 2.0 6.0 0.00 0.00 0.00 67 1014.6
20260507150058 87 238 2.0 5.0 0.00 0.00 0.00 66 1014.4
20260507145559 86 315 1.0 3.0 0.00 0.00 0.00 67 1014.4
20260507145054 86 262 1.0 4.0 0.00 0.00 0.00 70 1014.4
20260507144615 85 233 1.0 4.0 0.00 0.00 0.00 70 1014.2
20260507144056 84 121 0.0 4.0 0.00 0.00 0.00 74 1014.2
20260507143550 84 66 1.0 5.0 0.00 0.00 0.00 72 1014.3
20260507143049 83 104 2.0 5.0 0.00 0.00 0.00 72 1014.5
20260507142547 83 256 0.0 3.0 0.00 0.00 0.00 75 1014.5
20260507142044 82 287 1.0 3.0 0.00 0.00 0.00 76 1014.6
20260507141543 82 229 0.0 2.0 0.00 0.00 0.00 76 1014.7
20260507141042 81 302 0.0 5.0 0.00 0.00 0.00 76 1014.6
20260507140537 81 199 0.0 4.0 0.00 0.00 0.00 76 1014.5
20260507135534 80 333 1.0 3.0 0.00 0.00 0.00 77 1014.7
20260507135033 79 308 0.0 4.0 0.00 0.00 0.00 80 1014.6
20260507134511 79 227 1.0 6.0 0.00 0.00 0.00 79 1014.8
20260507134010 79 124 0.0 6.0 0.00 0.00 0.00 80 1014.8
20260507133506 78 299 1.0 6.0 0.00 0.00 0.00 80 1014.6
20260507133005 78 258 0.0 6.0 0.00 0.00 0.00 81 1014.6
20260507132502 77 257 0.0 5.0 0.00 0.00 0.00 82 1014.8
20260507132002 77 232 0.0 2.0 0.00 0.00 0.00 82 1014.8
20260507131515 76 150 0.0 3.0 0.00 0.00 0.00 82 1014.8
20260507131055 76 103 1.0 3.0 0.00 0.00 0.00 82 1014.8
20260507130554 76 44 0.0 4.0 0.00 0.00 0.00 83 1014.7
20260507130105 75 68 0.0 4.0 0.00 0.00 0.00 83 1014.7
20260507125552 75 316 1.0 7.0 0.00 0.00 0.00 84 1014.6
20260507125048 74 170 1.0 7.0 0.00 0.00 0.00 84 1014.5
20260507124546 74 199 2.0 6.0 0.00 0.00 0.00 84 1014.5
20260507124144 74 240 1.0 6.0 0.00 0.00 0.00 85 1014.3
20260507123541 74 276 0.0 7.0 0.00 0.00 0.00 86 1014.2
20260507123038 73 212 2.0 7.0 0.00 0.00 0.00 86 1014.2
20260507122540 73 262 1.0 5.0 0.00 0.00 0.00 87 1014.2
20260507122037 73 181 0.0 4.0 0.00 0.00 0.00 87 1014.2
20260507121551 73 265 0.0 4.0 0.00 0.00 0.00 88 1014.2
20260507121037 72 221 0.0 4.0 0.00 0.00 0.00 89 1014.2
20260507120533 72 245 0.0 4.0 0.00 0.00 0.00 89 1014.2
20260507120040 72 186 0.0 1.0 0.00 0.00 0.00 90 1014.3
20260507115530 72 212 0.0 3.0 0.00 0.00 0.00 90 1014.3
20260507115032 71 240 0.0 1.0 0.00 0.00 0.00 90 1014.3
20260507114528 71 229 0.0 2.0 0.00 0.00 0.00 91 1014.3
20260507114032 70 152 0.0 2.0 0.00 0.00 0.00 91 1014.4
20260507113533 70 34 0.0 2.0 0.00 0.00 0.00 91 1014.3
20260507113027 70 34 0.0 2.0 0.00 0.00 0.00 91 1014.4
20260507112527 69 274 0.0 1.0 0.00 0.00 0.00 91 1014.3
20260507112028 69 268 0.0 0.0 0.00 0.00 0.00 91 1014.3
20260507111538 69 123 0.0 2.0 0.00 0.00 0.00 91 1014.2
20260507111025 69 112 0.0 2.0 0.00 0.00 0.00 91 1014.3
20260507110531 68 43 0.0 0.0 0.00 0.00 0.00 91 1014.4
20260507110126 68 43 0.0 1.0 0.00 0.00 0.00 91 1014.2
20260507105623 68 43 0.0 1.0 0.00 0.00 0.00 91 1014.0
20260507105021 68 42 0.0 0.0 0.00 0.00 0.00 90 1014.2
20260507104521 68 42 0.0 0.0 0.00 0.00 0.00 90 1014.2
20260507104023 68 42 0.0 0.0 0.00 0.00 0.00 90 1014.2
20260507103519 68 42 0.0 0.0 0.00 0.00 0.00 90 1014.2
20260507103020 68 42 0.0 0.0 0.00 0.00 0.00 90 1014.4
20260507102518 69 42 0.0 0.0 0.00 0.00 0.00 90 1014.2
20260507102018 69 42 0.0 0.0 0.00 0.00 0.00 90 1014.1
20260507101519 69 42 0.0 1.0 0.00 0.00 0.00 90 1014.2
20260507101016 69 42 0.0 1.0 0.00 0.00 0.00 90 1014.2
20260507100516 69 42 0.0 0.0 0.00 0.00 0.00 89 1014.0
20260507100017 69 42 0.0 0.0 0.00 0.00 0.00 89 1014.1
20260507095518 69 42 0.0 0.0 0.00 0.00 0.00 89 1014.1
20260507095011 70 42 0.0 0.0 0.00 0.00 0.00 89 1014.0
20260507094510 70 42 0.0 0.0 0.00 0.00 0.00 89 1013.9
20260507094014 70 42 0.0 0.0 0.00 0.00 0.00 88 1013.9
20260507093517 70 42 0.0 0.0 0.00 0.00 0.00 88 1014.0
20260507093007 71 42 0.0 1.0 0.00 0.00 0.00 88 1013.9
20260507092507 71 41 0.0 1.0 0.00 0.00 0.00 88 1013.8
20260507092009 71 130 0.0 1.0 0.00 0.00 0.00 88 1013.8
20260507091503 71 300 0.0 2.0 0.00 0.00 0.00 88 1013.7
20260507091005 71 300 0.0 3.0 0.00 0.00 0.00 88 1013.6
20260507090503 71 258 0.0 3.0 0.00 0.00 0.00 88 1013.5
20260507090006 71 247 0.0 3.0 0.00 0.00 0.00 88 1013.3
20260507085503 70 5 0.0 3.0 0.00 0.00 0.00 88 1013.1
20260507085100 70 360 0.0 1.0 0.00 0.00 0.00 88 1013.0
20260507084700 70 327 0.0 2.0 0.00 0.00 0.00 88 1013.0
20260507084103 70 261 0.0 2.0 0.00 0.00 0.00 88 1013.1
20260507083554 70 311 0.0 4.0 0.00 0.00 0.00 88 1013.0
20260507083054 70 253 0.0 4.0 0.00 0.00 0.00 89 1013.0
20260507082558 69 138 0.0 1.0 0.00 0.00 0.00 89 1012.9
20260507082052 69 127 0.0 1.0 0.00 0.00 0.00 89 1012.9
20260507081550 69 174 0.0 0.0 0.00 0.00 0.00 89 1013.0
20260507081135 69 174 0.0 0.0 0.00 0.00 0.00 88 1013.0
20260507080534 69 174 0.0 0.0 0.00 0.00 0.00 88 1013.2
20260507075533 69 174 0.0 1.0 0.00 0.00 0.00 88 1013.3
20260507075036 69 108 0.0 1.0 0.00 0.00 0.00 88 1013.3
20260507074533 69 152 0.0 0.0 0.00 0.00 0.00 88 1013.4
20260507074030 69 152 0.0 0.0 0.00 0.00 0.00 88 1013.4
20260507073627 69 211 0.0 1.0 0.00 0.00 0.00 88 1013.4
20260507073026 69 216 0.0 2.0 0.00 0.00 0.00 88 1013.5
20260507072525 69 191 0.0 2.0 0.00 0.00 0.00 88 1013.6
20260507072022 69 88 0.0 0.0 0.00 0.00 0.00 87 1013.6
20260507071525 70 88 0.0 0.0 0.00 0.00 0.00 87 1013.7
20260507071017 70 88 0.0 0.0 0.00 0.00 0.00 87 1013.7
20260507070505 70 88 0.0 0.0 0.00 0.00 0.00 87 1013.7
20260507070012 70 88 0.0 1.0 0.00 0.00 0.00 87 1013.7
20260507065507 70 88 0.0 0.0 0.00 0.00 0.00 87 1013.7
20260507065004 70 88 0.0 1.0 0.00 0.00 0.00 87 1013.9
20260507064501 70 110 0.0 0.0 0.00 0.00 0.00 87 1013.9
20260507064102 70 110 0.0 0.0 0.00 0.00 0.00 86 1014.0
20260507063558 70 110 0.0 0.0 0.00 0.00 0.00 86 1014.1
20260507063501 70 110 0.0 0.0 0.00 0.00 0.00 86 1014.1
20260507063100 71 110 0.0 0.0 0.00 0.00 0.00 86 1014.1
20260507062555 71 110 0.0 0.0 0.00 0.00 0.00 86 1014.2
20260507062054 71 111 0.0 0.0 0.00 0.00 0.00 86 1014.3
20260507062001 71 111 0.0 1.0 0.00 0.00 0.00 86 1014.3
20260507061552 71 108 0.0 1.0 0.00 0.00 0.00 86 1014.5
20260507061050 71 108 0.0 0.0 0.00 0.00 0.00 85 1014.5
20260507060549 71 108 0.0 0.0 0.00 0.00 0.00 85 1014.8
20260507060056 71 108 0.0 0.0 0.00 0.00 0.00 85 1014.8
20260507055547 72 108 0.0 0.0 0.00 0.00 0.00 85 1014.9
20260507055046 72 108 0.0 1.0 0.00 0.00 0.00 85 1014.9
20260507054550 72 86 0.0 1.0 0.00 0.00 0.00 84 1014.8
20260507054518 72 86 0.0 0.0 0.00 0.00 0.00 84 1014.8
20260507054019 72 86 0.0 1.0 0.00 0.00 0.00 84 1014.9
20260507053519 72 86 0.0 1.0 0.00 0.00 0.00 84 1014.9
20260507053016 72 292 0.0 1.0 0.00 0.00 0.00 83 1015.0
20260507052515 72 147 0.0 0.0 0.00 0.00 0.00 83 1015.1
20260507052018 72 146 0.0 1.0 0.00 0.00 0.00 83 1015.1
20260507051515 73 130 0.0 1.0 0.00 0.00 0.00 83 1015.1
20260507051009 73 130 0.0 1.0 0.00 0.00 0.00 82 1015.1
20260507050508 73 338 0.0 1.0 0.00 0.00 0.00 82 1015.1
20260507050113 73 330 0.0 1.0 0.00 0.00 0.00 82 1015.1
20260507045508 73 108 0.0 1.0 0.00 0.00 0.00 82 1014.8
20260507045004 73 84 0.0 2.0 0.00 0.00 0.00 82 1014.8
20260507044515 73 85 0.0 2.0 0.00 0.00 0.00 82 1014.9
20260507044001 73 60 0.0 1.0 0.00 0.00 0.00 81 1015.0
20260507043604 73 140 0.0 1.0 0.00 0.00 0.00 81 1015.0
20260507043104 73 140 0.0 1.0 0.00 0.00 0.00 81 1015.1
20260507043002 73 208 0.0 1.0 0.00 0.00 0.00 81 1015.1
20260507042558 73 116 0.0 1.0 0.00 0.00 0.00 80 1015.1
20260507042105 73 116 0.0 1.0 0.00 0.00 0.00 80 1015.2
20260507041559 73 116 0.0 0.0 0.00 0.00 0.00 80 1015.3
20260507041057 73 116 0.0 0.0 0.00 0.00 0.00 79 1015.2
20260507041002 73 116 0.0 0.0 0.00 0.00 0.00 79 1015.3
20260507040553 73 116 0.0 0.0 0.00 0.00 0.00 79 1015.3
20260507040052 74 116 0.0 0.0 0.00 0.00 0.00 79 1015.3
20260507035553 74 116 0.0 0.0 0.00 0.00 0.00 79 1015.2
20260507035055 74 116 0.0 3.0 0.00 0.00 0.00 78 1015.3
20260507034555 74 116 0.0 3.0 0.00 0.00 0.00 78 1015.2
20260507034053 74 322 0.0 0.0 0.00 0.00 0.00 78 1015.1
20260507033550 74 322 0.0 0.0 0.00 0.00 0.00 77 1015.1
20260507033051 74 322 0.0 0.0 0.00 0.00 0.00 77 1015.0
20260507032550 75 322 0.0 1.0 0.00 0.00 0.00 77 1015.0
20260507032046 75 166 0.0 3.0 0.00 0.00 0.00 77 1015.0
20260507031044 75 120 0.0 1.0 0.00 0.00 0.00 77 1015.1
20260507030548 74 168 0.0 0.0 0.00 0.00 0.00 76 1015.0
20260507030042 75 169 0.0 1.0 0.00 0.00 0.00 76 1014.9
20260507025554 75 169 0.0 1.0 0.00 0.00 0.00 76 1014.9
20260507025044 75 274 0.0 4.0 0.00 0.00 0.00 75 1015.0
20260507024547 75 85 0.0 4.0 0.00 0.00 0.00 75 1015.1
20260507024038 75 215 0.0 2.0 0.00 0.00 0.00 75 1015.1
20260507023540 75 107 0.0 2.0 0.00 0.00 0.00 75 1015.0
20260507023036 75 136 0.0 3.0 0.00 0.00 0.00 75 1015.1
20260507022536 76 125 0.0 3.0 0.00 0.00 0.00 75 1015.0